TimeEDT,TemperatureF,Dew PointF,Humidity,Sea Level PressureIn,VisibilityMPH,Wind Direction,Wind SpeedMPH,Gust SpeedMPH,PrecipitationIn,Events,Conditions,WindDirDegrees,DateUTC
12:54 AM,41.0,35.1,79,30.45,10.0,NW,4.6,-,N/A,,Clear,320,2007-10-29 04:54:00
1:54 AM,39.0,35.1,86,30.47,10.0,NW,4.6,-,N/A,,Clear,320,2007-10-29 05:54:00
2:54 AM,36.0,34.0,93,30.48,8.0,SSE,3.5,-,N/A,,Clear,160,2007-10-29 06:54:00
3:54 AM,37.0,34.0,89,30.49,8.0,Calm,Calm,-,N/A,,Clear,0,2007-10-29 07:54:00
4:45 AM,33.8,32.0,93,30.49,1.2,South,3.5,-,N/A,,Clear,170,2007-10-29 08:45:00
4:47 AM,33.8,32.0,93,30.49,0.8,Calm,Calm,-,N/A,,Mist,0,2007-10-29 08:47:00
4:54 AM,34.0,32.0,92,30.49,0.2,Calm,Calm,-,N/A,Fog,Fog,0,2007-10-29 08:54:00
5:26 AM,33.8,32.0,93,30.50,1.2,Calm,Calm,-,N/A,,Mostly Cloudy,0,2007-10-29 09:26:00
5:28 AM,33.8,32.0,93,30.51,2.0,Calm,Calm,-,N/A,,Scattered Clouds,0,2007-10-29 09:28:00
5:35 AM,33.8,32.0,93,30.51,4.0,Calm,Calm,-,N/A,,Partly Cloudy,0,2007-10-29 09:35:00
5:39 AM,33.8,30.2,87,30.50,1.5,Calm,Calm,-,N/A,,Partly Cloudy,0,2007-10-29 09:39:00
5:41 AM,33.8,30.2,87,30.50,0.8,Calm,Calm,-,N/A,,Mist,0,2007-10-29 09:41:00
5:54 AM,33.1,32.0,96,30.51,0.5,Calm,Calm,-,N/A,Fog,Fog,0,2007-10-29 09:54:00
5:57 AM,33.8,32.0,93,30.50,1.2,Calm,Calm,-,N/A,,Partly Cloudy,0,2007-10-29 09:57:00
5:59 AM,33.8,32.0,93,30.50,2.0,Calm,Calm,-,N/A,,Partly Cloudy,0,2007-10-29 09:59:00
6:07 AM,33.8,32.0,93,30.51,5.0,Calm,Calm,-,N/A,,Partly Cloudy,0,2007-10-29 10:07:00
6:19 AM,33.8,30.2,87,30.51,2.0,Calm,Calm,-,N/A,,Clear,0,2007-10-29 10:19:00
6:30 AM,32.0,30.2,93,30.51,3.0,Calm,Calm,-,N/A,,Clear,0,2007-10-29 10:30:00
6:35 AM,32.0,30.2,93,30.51,1.8,Calm,Calm,-,N/A,,Clear,0,2007-10-29 10:35:00
6:50 AM,32.0,30.2,93,30.51,3.0,Calm,Calm,-,N/A,,Clear,0,2007-10-29 10:50:00
6:54 AM,32.0,30.0,92,30.52,5.0,Calm,Calm,-,N/A,,Clear,0,2007-10-29 10:54:00
7:08 AM,32.0,30.2,93,30.51,2.5,Calm,Calm,-,N/A,,Clear,0,2007-10-29 11:08:00
7:15 AM,32.0,30.2,93,30.51,5.0,Calm,Calm,-,N/A,,Clear,0,2007-10-29 11:15:00
7:54 AM,30.9,30.0,96,30.53,6.0,Calm,Calm,-,N/A,,Clear,0,2007-10-29 11:54:00
8:54 AM,34.0,32.0,92,30.56,10.0,Calm,Calm,-,N/A,,Clear,0,2007-10-29 12:54:00
9:54 AM,43.0,30.0,60,30.57,10.0,Calm,Calm,-,N/A,,Clear,0,2007-10-29 13:54:00
10:54 AM,46.9,28.0,48,30.56,10.0,NE,4.6,-,N/A,,Clear,50,2007-10-29 14:54:00
11:54 AM,48.0,27.0,44,30.54,10.0,SSE,4.6,-,N/A,,Clear,160,2007-10-29 15:54:00
12:54 PM,51.1,30.0,44,30.52,10.0,South,4.6,-,N/A,,Clear,170,2007-10-29 16:54:00
1:54 PM,54.0,30.9,41,30.48,10.0,SSE,5.8,-,N/A,,Clear,150,2007-10-29 17:54:00
2:54 PM,57.9,32.0,37,30.45,10.0,Calm,Calm,-,N/A,,Clear,0,2007-10-29 18:54:00
3:54 PM,57.9,32.0,37,30.43,10.0,Calm,Calm,-,N/A,,Clear,0,2007-10-29 19:54:00
4:54 PM,57.9,33.1,39,30.43,10.0,South,4.6,-,N/A,,Clear,190,2007-10-29 20:54:00
5:54 PM,55.9,35.1,45,30.43,10.0,SSE,6.9,-,N/A,,Clear,160,2007-10-29 21:54:00
6:54 PM,50.0,36.0,59,30.44,10.0,SSE,6.9,-,N/A,,Clear,160,2007-10-29 22:54:00
7:54 PM,46.9,34.0,61,30.47,10.0,SSW,4.6,-,N/A,,Clear,210,2007-10-29 23:54:00
8:54 PM,43.0,34.0,71,30.48,10.0,SSW,3.5,-,N/A,,Clear,200,2007-10-30 00:54:00
9:54 PM,41.0,35.1,79,30.48,10.0,Calm,Calm,-,N/A,,Clear,0,2007-10-30 01:54:00
10:54 PM,39.0,35.1,86,30.48,10.0,Calm,Calm,-,N/A,,Clear,0,2007-10-30 02:54:00
11:54 PM,37.0,34.0,89,30.48,10.0,South,3.5,-,N/A,,Clear,170,2007-10-30 03:54:00